Location: Zagreb
(45.8000°N, 16.0000°E)
Time: 20:40:24
(UTC+01:00)

DX 1 - Pass Details

Date: 07 November 2020
Orbit: 619 x 630 km, 98.5° (Epoch: 01 December)

Event Time Altitude Azimuth Distance (km) Brightness Sun altitude
Exits shadow 18:37:59 18° 12° (NNE) 1,564 ? -21.9°
Maximum altitude 18:41:15 84° 288° (WNW) 635 ? -22.4°
Drops below altitude 10° 18:45:36 10° 198° (SSW) 1,995 ? -23.2°
Sets 18:47:47 0° 198° (SSW) 2,899 ? -23.6°
